Regional Weather Roundup
Issued by NWS Upton, NY

Home | Current Version | Previous Version | Text Only | Print | Product List | Glossary On
Versions: 1 2 3 4 5 6 7 8 9 10 11 12 13 14 15 16 17 18 19 20 21 22 23 24 25 26 27
000
ASUS41 KOKX 280009
RWROKX

REGIONAL WEATHER ROUNDUP
NATIONAL WEATHER SERVICE NEW YORK NY
800 PM EDT TUE JUN 27 2017

NOTE: "FAIR" INDICATES FEW OR NO CLOUDS BELOW 12,000 FEET WITH NO
SIGNIFICANT WEATHER AND/OR OBSTRUCTIONS TO VISIBILITY.

NYZ071-072-176-178-NJZ106-104-280100-
NEW YORK CITY METRO AREA

CITY           SKY/WX    TMP DP  RH WIND       PRES   REMARKS
Central Park   FAIR      73  49  42 W8        29.98R
Bronx Bot Gard   N/A     72  46  40 SW8       29.98R
LaGuardia APRT MOCLDY    74  51  44 NW15G24   29.94R
Kennedy INTL   MOCLDY    69  64  84 SW12      29.96R
Breezy Point     N/A     66 N/A N/A S8          N/A
Newark/Liberty MOCLDY    73  47  39 NW14G24   29.95R
Teterboro      FAIR      72  49  44 W14G22    29.94R
$$

NYZ177-179-078>081-280100-
LONG ISLAND NEW YORK

CITY           SKY/WX    TMP DP  RH WIND       PRES   REMARKS
Jones Beach      N/A     68 N/A N/A SW3         N/A
Matinecock PT    N/A    N/A N/A N/A W12         N/A
Farmingdale    NOT AVBL
MacArthur/ISP  MOCLDY    71  56  58 NW5       29.95R
Shirley        FAIR      71  56  58 NW6       29.95R
Mt Sinai Harb    N/A    N/A N/A N/A W3          N/A
Westhampton    FAIR      68  57  68 W8        29.97R
East Hampton   FAIR      66  62  85 S7        29.93S
Montauk          N/A     69  61  75 SW7       29.94S
$$

NYZ052-065-067-280100-
HUDSON VALLEY

CITY           SKY/WX    TMP DP  RH WIND       PRES   REMARKS
White Plains   FAIR      70  48  45 NW9       29.95R
Larchmont Harb   N/A     72 N/A N/A W9          N/A
Croton O-T Hud   N/A     72 N/A N/A NW16        N/A
Newburgh       PTCLDY    66  50  55 NW12      29.98R
Montgomery     FAIR      66  49  54 NW7       29.97R
Poughkeepsie   FAIR      63  53  70 N5        29.96R
Albany         FAIR      62  51  67 W10       29.96R
$$

NJZ001-105-106-008-010-013-015-019>022-104-280100-
NEW JERSEY

CITY           SKY/WX    TMP DP  RH WIND       PRES   REMARKS
Newark/Liberty MOCLDY    73  47  39 NW14G24   29.95R
Teterboro      FAIR      72  49  44 W14G22    29.94R
Caldwell       MOCLDY    72  46  39 SW3       29.97R
Somerville     FAIR      68  58  70 MISG      29.95R
Linden         FAIR      71  48  43 NW9       29.96R
Perth Amboy      N/A     72 N/A N/A NW13        N/A
Sussex         CLOUDY    67  54  63 CALM      29.98R
Andover          N/A     64  56  75 CALM      29.98R
Trenton        FAIR      73  54  51 N6        29.95R
Millville      FAIR      73  58  59 W5        29.97R
Atlantic City  FAIR      77  55  46 SW8       29.96R
Wrightstown    FAIR      73  51  45 W8        29.93R
Toms River     FAIR      75  53  46 W6        29.96R
Belmar         FAIR      70  61  73 SE5       29.96R
$$

PAZ047>061-062-071-280100-
EASTERN PENNSYLVANIA

CITY           SKY/WX    TMP DP  RH WIND       PRES   REMARKS
Philadelphia   FAIR      77  48  35 W12       29.97R
Allentown      MOCLDY    72  47  40 W7        29.97R
Scranton       CLOUDY    68  50  52 NW6       29.99R
$$

CTZ002-004>006-009-010-012-RIZ004-006-007-MAZ004-011-015-280100-
SOUTHERN NEW ENGLAND
 IN CT

CITY           SKY/WX    TMP DP  RH WIND       PRES   REMARKS
Bradley INTL   MOCLDY    67  52  58 N8        29.94R
Hartford       MOCLDY    66  58  75 CALM      29.93R
Danbury        NOT AVBL
Wtrbury/Oxford PTCLDY    66  46  48 NW8       29.97R
Bridgeport     FAIR      71  55  56 SW8       29.94S
Meriden        MOCLDY    66  62  87 SW5       29.93R
New Haven      MOCLDY    69  52  54 SW8       29.94R
Chester        FAIR      70  59  68 VRB5G12   29.94R
Groton         FAIR      67  60  78 SW12      29.92R
Wilimantic     LGT RAIN  61  58  90 E8        29.94S FOG

 IN RI

CITY           SKY/WX    TMP DP  RH WIND       PRES   REMARKS
Providence     MOCLDY    70  64  81 SW8       29.92R
Block Island   FAIR      67  64  90 SW14      29.93F
Westerly       FAIR      69  61  75 SW10      29.93R
 IN MA

CITY           SKY/WX    TMP DP  RH WIND       PRES   REMARKS
Boston         MOCLDY    66  54  65 SW14      29.90S
Worcester      TSTM      57  48  72 W16G37    29.94R
Westfield      FAIR      62  52  69 CALM      29.94R
Provincetown   MOCLDY    67  60  78 S12       29.94S
Nantucket      FAIR      64  62  93 S7        29.95F
$$

ANZ330-335-338-340-345-350-353-355-280100-
COASTAL MARINE OBSERVATIONS


STATION/POSITION TIME  SKY/WX   TEMP    WIND        PRES    VSBY  WAVE
                                AIR SEA DIR/SP/G                  HT/PER
                 (UTC)          (F)     (DEG/KT/KT) (MB)    (MI)  (FT/S)
NY HARB ENTRANCE 2350            70 69  190/ 12/ 14 1013.7          1/ 9
20 S FIRE ISLAND 2350            70 71  210/  8/ 10 1013.5          2/ 6
GREAT SOUTH BAY  2330            71 76  220/ 12/ 14   N/A
23 SSW MONTAUK P 2250            68 66              1013.9          3/ 4
15 E BARNEGAT LI 2330               67                N/A           2/ 3
HUDSON CANYON    2250            70 69  230/  6/  6 1014.1          2/ 4
KINGS POINT      2330            72 67  320/  8/ 12 1013.7
EXECUTION ROCKS  2345            71     300/ 10/ 14   N/A
CENTRAL LI SOUND 2315            71     210/ 12/ 16   N/A           1
EASTERN LI SOUND NOT AVBL
ROBBINS REEF     2324                   300/ 11/ 16 1014.3
$$


>>>>>>>>>>>>>>>>>>>>>>>>>>>> KEY <<<<<<<<<<<<<<<<<<<<<<<<<<<
>                                                          <
>     SKY/WX - Sky Condition/Present Weather               <
>     TMP    - Temperature in Fahrenheit                   <
>     DP     - Dew Point in Fahrenheit                     <
>     RH     - Relative Humidity in Percent                <
>     WIND   - Direction (from) and Speed in MPH           <
>     PRES   - Mean Sea Level Pressure (inches of Hg)      <
>     WCI    - Wind Chill Index                            <
>     VSB    - VISIBILITY IN MILES                         <
>     HX     - HEAT INDEX                                  <
>     TC     - TEMPERATURE IN CELSIUS                      <
>     VRB    - VARIABLE WIND DIRECTION                     <
>                                                          <
>>>>>>>>>>>>>>>>>>>>>>>>>>>> KEY <<<<<<<<<<<<<<<<<<<<<<<<<<<




USA.gov is the U.S. government's official web portal to all federal, state and local government web resources and services.